Kailua Kona, HI

11:32 AM HST on February 23, 2017 (GMT -1000)
Kona International At Keahole

Weather History for PHKO - April, 2014

Change the Weather History Date:

Thursday, April 24, 2014

  Actual Average Record
Temperature  
Mean Temperature 78 °F -  
Max Temperature 84 °F 80 °F 90 °F (1983)
Min Temperature 73 °F 69 °F 67 °F (1982)
Cooling Degree Days 14    
Growing Degree Days 28 (Base 50)    
Moisture  
Dew Point 66 °F    
Average Humidity 66    
Maximum Humidity 82    
Minimum Humidity 53    
Precipitation  
Precipitation 0.03 in - - ()
Sea Level Pressure  
Sea Level Pressure 30.03 in    
Wind  
Wind Speed 6 mph (SSW)    
Max Wind Speed 14 mph    
Max Gust Speed -    
Visibility 10 miles    
Events Rain    
Averages and records for this station are not official NWS values.
T = Trace of Precipitation, MM = Missing Value Source: NWS Daily Summary

Daily Weather History Graph

Daily Weather History Graph

Search for Another Location

Airport or City:

Trip Planner

Search our weather history database for the weather conditions in past years. The results will help you decide how hot, cold, wet, or windy it might be!

Date:

Astronomy

Apr. 24, 2014 Rise Set
Actual Time 5:59 AM HST 6:45 PM HST
Civil Twilight 5:36 AM HST 7:07 PM HST
Nautical Twilight 5:10 AM HST 7:34 PM HST
Astronomical Twilight 4:43 AM HST 8:01 PM HST
Moon 2:38 AM HST (4/24) 2:48 PM HST (4/24)
Length of Visible Light 13h 30m
Length of Day
12h 45m
Waning Crescent, 22% of the Moon is Illuminated
Apr 24
Waning Crescent
Apr 28
New
May 6
First Quarter
May 14
Full
May 21
Last Quarter

Hourly Weather History & Observations

Time (HST) Temp. Heat Index Dew Point Humidity Pressure Visibility Wind Dir Wind Speed Gust Speed Precip Events Conditions
12:53 AM 77.0 °F - 64.9 °F 66% 30.03 in 10.0 mi Calm Calm - N/A   Overcast
1:07 AM 78.8 °F - 68.0 °F 69% 30.02 in 10.0 mi West 4.6 mph - N/A   Overcast
1:53 AM 77.0 °F - 68.0 °F 74% 30.01 in 10.0 mi SSW 5.8 mph - N/A   Overcast
2:29 AM 77.0 °F - 66.2 °F 69% 30.00 in 10.0 mi Calm Calm - N/A   Overcast
2:53 AM 77.0 °F - 66.9 °F 71% 29.99 in 10.0 mi SW 8.1 mph - N/A   Overcast
3:19 AM 77.0 °F - 66.2 °F 69% 29.99 in 10.0 mi SW 5.8 mph - 0.00 in   Overcast
3:53 AM 75.9 °F - 68.0 °F 76% 29.99 in 6.0 mi ESE 3.5 mph - 0.03 in Rain Heavy Rain
4:53 AM 73.9 °F - 68.0 °F 82% 29.99 in 10.0 mi East 6.9 mph - 0.00 in   Clear
5:53 AM 73.0 °F - 66.0 °F 79% 30.00 in 10.0 mi East 6.9 mph - N/A   Clear
6:53 AM 75.0 °F - 64.9 °F 71% 30.04 in 10.0 mi East 8.1 mph - N/A   Clear
7:53 AM 78.1 °F - 66.0 °F 66% 30.05 in 10.0 mi ESE 8.1 mph - N/A   Partly Cloudy
8:53 AM 81.0 °F 82.5 °F 64.0 °F 56% 30.07 in 10.0 mi South 3.5 mph - N/A   Clear
9:53 AM 82.0 °F 84.1 °F 66.0 °F 58% 30.08 in 10.0 mi WSW 9.2 mph - N/A   Clear
10:53 AM 82.0 °F 84.5 °F 66.9 °F 60% 30.07 in 10.0 mi WNW 8.1 mph - N/A   Clear
11:53 AM 82.9 °F 85.4 °F 66.9 °F 58% 30.06 in 10.0 mi WSW 11.5 mph - N/A   Clear
12:53 PM 82.0 °F 83.8 °F 64.9 °F 56% 30.04 in 10.0 mi WSW 11.5 mph - N/A   Partly Cloudy
1:53 PM 84.0 °F 85.8 °F 64.9 °F 53% 30.01 in 10.0 mi SW 10.4 mph - N/A   Partly Cloudy
2:53 PM 82.0 °F 83.8 °F 64.9 °F 56% 29.99 in 10.0 mi SSW 10.4 mph - N/A   Mostly Cloudy
3:53 PM 82.9 °F 84.6 °F 64.9 °F 54% 29.98 in 10.0 mi SSW 9.2 mph - N/A   Mostly Cloudy
4:53 PM 82.0 °F 83.8 °F 64.9 °F 56% 29.99 in 10.0 mi South 13.8 mph - N/A   Mostly Cloudy
5:53 PM 80.1 °F 82.1 °F 66.0 °F 62% 30.00 in 10.0 mi South 12.7 mph - N/A   Partly Cloudy
6:53 PM 79.0 °F - 66.0 °F 64% 30.03 in 10.0 mi SSE 10.4 mph - N/A   Overcast
7:53 PM 79.0 °F - 66.9 °F 66% 30.04 in 10.0 mi SSE 5.8 mph - N/A   Overcast
8:53 PM 79.0 °F - 68.0 °F 69% 30.05 in 10.0 mi SSW 9.2 mph - N/A   Overcast
9:53 PM 78.1 °F - 69.1 °F 74% 30.07 in 10.0 mi WSW 13.8 mph - N/A   Mostly Cloudy
10:53 PM 77.0 °F - 70.0 °F 79% 30.07 in 10.0 mi WSW 9.2 mph - 0.00 in Rain Light Rain
11:53 PM 77.0 °F - 68.0 °F 74% 30.06 in 10.0 mi Calm Calm - 0.00 in   Overcast